Hourly Data Report for October 11, 2015

All times are specified in Local Standard Time (LST). Add 1 hour to adjust for Daylight Saving Time where and when it is observed.

GJOA HAVEN A
NUNAVUT

68°38'08.000" N
95°51'01.000" W
46.90 m
2302337
71597
YHK

Download Data

Hourly Data (October 2015)
Hourly Data Report for October 11, 2015
Temp Definition
°C
Dew Point Temp Definition
°C
Rel Hum Definition
%
Wind Dir Definition
10's deg

Wind Spd Definition
km/h
Visibility Definition
km
Stn Press Definition
kPa
Hmdx Definition


Wind Chill Definition


Weather Definition


TIME
00:00 Legend Double Dagger -7.0 -9.7 81 15 21 16.1 99.96   -14 LegendNANA
01:00 Legend Double Dagger -6.9 -9.8 80 15 21 16.1 99.96   -14 LegendNANA
02:00 Legend Double Dagger -7.0 -10.2 78 17 18 16.1 99.97   -14 LegendNANA
03:00 Legend Double Dagger -7.0 -10.4 77 15 15 16.1 99.97   -13 LegendNANA
04:00 Legend Double Dagger -7.0 -10.7 75 15 15 16.1 99.98   -13 LegendNANA
05:00 Legend Double Dagger -7.1 -10.5 77 15 13 16.1 99.99   -13 LegendNANA
06:00 Legend Double Dagger -6.6 -10.0 77 15 15 16.1 99.98   -13 LegendNANA
07:00 Legend Double Dagger -6.8 -9.4 82 13 17 16.1 99.98   -13 LegendNANA
08:00 Legend Double Dagger -6.4 -9.1 82 13 17 16.1 99.98   -13 LegendNANA
09:00 Legend Double Dagger -6.2 -9.0 81 14 17 16.1 100.00   -12 LegendNANA
10:00 Legend Double Dagger -5.7 -9.1 77 14 13 16.1 100.02   -11 LegendNANA
11:00 Legend Double Dagger -5.5 -7.9 83 15 11 16.1 100.02   -10 LegendNANA
12:00 Legend Double Dagger -5.3 -7.6 84 16 13 16.1 100.02   -10 LegendNANA
13:00 Legend Double Dagger -5.1 -7.6 83 15 15 16.1 100.03   -11 LegendNANA
14:00 Legend Double Dagger -5.2 -8.1 80 12 15 16.1 100.00   -11 LegendNANA
15:00 Legend Double Dagger -5.8 -7.9 85 14 18 16.1 100.01   -12 LegendNANA
16:00 Legend Double Dagger -5.7 -7.4 88 14 13 16.1 100.00   -11 LegendNANA
17:00 Legend Double Dagger -5.5 -7.6 85 15 15 16.1 99.99   -11 LegendNANA
18:00 Legend Double Dagger -5.3 -7.1 87 15 21 14.5 99.98   -12 Snow
19:00 Legend Double Dagger -5.2 -6.6 90 14 21 16.1 99.95   -12 Snow
20:00 Legend Double Dagger -5.0 -6.1 92 14 21 16.1 99.92   -12 Snow
21:00 Legend Double Dagger -4.6 -5.8 91 14 21 11.3 99.88   -11 Snow
22:00 Legend Double Dagger -4.4 -5.1 95 14 22 6.4 99.86   -11 Snow
23:00 Legend Double Dagger -4.1 -5.1 93 14 22 8.1 99.80   -11 Snow

Notes on Data Quality.

Legend

  • E = Estimated
  • M = Missing
  • NA = Not Available
  • ‡ = Partner data that is not subject to review by the National Climate Archives
Date modified: